Satellite: NOAA-15 Catalog number: 25338 Epoch time: 09308.78615824 Element set: 0143 Inclination: 098.5979 deg RA of node: 295.0109 deg Eccentricity: 0.0010914 Arg of perigee: 013.8537 deg Mean anomaly: 346.2930 deg Mean motion: 14.24791366 rev/day Decay rate: 1.31e-06 rev/day^2 Epoch rev: 59679 Checksum: 332
Satellite: RESURS Catalog number: 25394 Epoch time: 09308.67144479 Element set: 349 Inclination: 098.3291 deg RA of node: 333.7880 deg Eccentricity: 0.0001668 Arg of perigee: 126.8068 deg Mean anomaly: 233.3265 deg Mean motion: 14.24189472 rev/day Decay rate: -6.0e-08 rev/day^2 Epoch rev: 58839 Checksum: 334
Satellite: FENGYUN1 Catalog number: 25730 Epoch time: 09309.77091059 Element set: 892 Inclination: 098.7682 deg RA of node: 275.7768 deg Eccentricity: 0.0021224 Arg of perigee: 171.5770 deg Mean anomaly: 188.5765 deg Mean motion: 14.08045878 rev/day Decay rate: 6.96e-06 rev/day^2 Epoch rev: 54024 Checksum: 347
Satellite: OKEAN-0 Catalog number: 25860 Epoch time: 09308.86636712 Element set: 0829 Inclination: 097.8039 deg RA of node: 284.5911 deg Eccentricity: 0.0001834 Arg of perigee: 075.7919 deg Mean anomaly: 284.3491 deg Mean motion: 14.73595661 rev/day Decay rate: 5.5e-07 rev/day^2 Epoch rev: 55386 Checksum: 345
Satellite: NOAA-16 Catalog number: 26536 Epoch time: 09308.82705919 Element set: 0623 Inclination: 099.1784 deg RA of node: 315.9231 deg Eccentricity: 0.0009834 Arg of perigee: 244.4102 deg Mean anomaly: 115.6037 deg Mean motion: 14.12535862 rev/day Decay rate: -2.51e-06 rev/day^2 Epoch rev: 47015 Checksum: 300
Satellite: NOAA-17 Catalog number: 27453 Epoch time: 09308.94305419 Element set: 0615 Inclination: 098.4666 deg RA of node: 003.0377 deg Eccentricity: 0.0012661 Arg of perigee: 075.3195 deg Mean anomaly: 284.9354 deg Mean motion: 14.24103461 rev/day Decay rate: -2.6e-07 rev/day^2 Epoch rev: 38278 Checksum: 310
Satellite: NOAA-18 Catalog number: 28654 Epoch time: 09308.91941522 Element set: 0103 Inclination: 098.9218 deg RA of node: 251.1536 deg Eccentricity: 0.0014022 Arg of perigee: 329.5415 deg Mean anomaly: 030.4977 deg Mean motion: 14.11298243 rev/day Decay rate: -7.0e-08 rev/day^2 Epoch rev: 22980 Checksum: 295
Satellite: NOAA-19 Catalog number: 33591 Epoch time: 09308.92971082 Element set: 0308 Inclination: 098.7618 deg RA of node: 251.1201 deg Eccentricity: 0.0013621 Arg of perigee: 201.3745 deg Mean anomaly: 158.6876 deg Mean motion: 14.10996777 rev/day Decay rate: -1.67e-06 rev/day^2 Epoch rev: 03828 Checksum: 324
/EX SB KEPS @ AMSAT $ORB09309.M Orbital Elements 09309.MISC
HR AMSAT ORBITAL ELEMENTS FOR MANNED AND MISCELLANEOUS SATELLITES FROM WA5QGD FORT WORTH,TX November 5, 2009 Send Subscribe/unsubscribe to KEPS at http://www.amsat.org/mailman/listinfo/keps BID: ORB09309.M TO ALL RADIO AMATEURS BT
Satellite: HUBBLE Catalog number: 20580 Epoch time: 09308.22684229 Element set: 471 Inclination: 028.4701 deg RA of node: 268.3012 deg Eccentricity: 0.0003343 Arg of perigee: 334.3060 deg Mean anomaly: 025.7370 deg Mean motion: 15.00849904 rev/day Decay rate: 4.45e-06 rev/day^2 Epoch rev: 87091 Checksum: 269
Satellite: ISS Catalog number: 25544 Epoch time: 09309.86935794 Element set: 929 Inclination: 051.6431 deg RA of node: 299.0934 deg Eccentricity: 0.0006202 Arg of perigee: 298.6359 deg Mean anomaly: 148.5370 deg Mean motion: 15.75906518 rev/day Decay rate: 1.8392e-04 rev/day^2 Epoch rev: 62827 Checksum: 350
Satellite: CO-58 Catalog number: 28895 Epoch time: 09308.71575238 Element set: 434 Inclination: 098.0391 deg RA of node: 195.2387 deg Eccentricity: 0.0016939 Arg of perigee: 268.6380 deg Mean anomaly: 091.2903 deg Mean motion: 14.59810807 rev/day Decay rate: 1.79e-06 rev/day^2 Epoch rev: 21423 Checksum: 346
Satellite: FALCON Catalog number: 30776 Epoch time: 09308.43292723 Element set: 0705 Inclination: 035.4346 deg RA of node: 328.4563 deg Eccentricity: 0.0001346 Arg of perigee: 021.9220 deg Mean anomaly: 338.1554 deg Mean motion: 15.03356710 rev/day Decay rate: 6.30e-06 rev/day^2 Epoch rev: 14621 Checksum: 265
Satellite: MAST Catalog number: 31126 Epoch time: 09308.60508827 Element set: 723 Inclination: 097.9709 deg RA of node: 356.8499 deg Eccentricity: 0.0094242 Arg of perigee: 203.4724 deg Mean anomaly: 156.2146 deg Mean motion: 14.53527321 rev/day Decay rate: 6.3e-07 rev/day^2 Epoch rev: 13543 Checksum: 302
Satellite: CAPE1 Catalog number: 31130 Epoch time: 09308.64439262 Element set: 734 Inclination: 097.9731 deg RA of node: 354.7623 deg Eccentricity: 0.0101976 Arg of perigee: 209.9122 deg Mean anomaly: 149.6221 deg Mean motion: 14.52100354 rev/day Decay rate: 1.36e-06 rev/day^2 Epoch rev: 13507 Checksum: 279
Satellite: COMPASS Catalog number: 32787 Epoch time: 09308.23415640 Element set: 0510 Inclination: 097.9272 deg RA of node: 010.7559 deg Eccentricity: 0.0014947 Arg of perigee: 299.9351 deg Mean anomaly: 060.0376 deg Mean motion: 14.81685112 rev/day Decay rate: 2.93e-06 rev/day^2 Epoch rev: 08218 Checksum: 305
Satellite: AAUSAT2 Catalog number: 32788 Epoch time: 09308.86551939 Element set: 503 Inclination: 097.9282 deg RA of node: 011.4655 deg Eccentricity: 0.0014452 Arg of perigee: 300.6704 deg Mean anomaly: 059.3068 deg Mean motion: 14.81811375 rev/day Decay rate: 5.6e-07 rev/day^2 Epoch rev: 8228 Checksum: 310
Satellite: DO-64 Catalog number: 32789 Epoch time: 09308.75159620 Element set: 518 Inclination: 097.9322 deg RA of node: 011.6099 deg Eccentricity: 0.0014747 Arg of perigee: 297.0540 deg Mean anomaly: 062.9167 deg Mean motion: 14.81841415 rev/day Decay rate: 7.15e-06 rev/day^2 Epoch rev: 8226 Checksum: 325
Satellite: CO-66 Catalog number: 32791 Epoch time: 09309.71194278 Element set: 499 Inclination: 097.9287 deg RA of node: 012.2488 deg Eccentricity: 0.0015308 Arg of perigee: 292.8585 deg Mean anomaly: 067.0998 deg Mean motion: 14.81503026 rev/day Decay rate: 1.03e-06 rev/day^2 Epoch rev: 8236 Checksum: 341
Satellite: RS-30 Catalog number: 32953 Epoch time: 09308.72454195 Element set: 445 Inclination: 082.5034 deg RA of node: 169.2441 deg Eccentricity: 0.0018104 Arg of perigee: 232.2596 deg Mean anomaly: 127.6842 deg Mean motion: 12.43003129 rev/day Decay rate: 1.0e-07 rev/day^2 Epoch rev: 6585 Checksum: 278
Satellite: TACSAT-3 Catalog number: 35001 Epoch time: 09308.88379814 Element set: 0145 Inclination: 040.4553 deg RA of node: 118.9512 deg Eccentricity: 0.0022195 Arg of perigee: 128.8611 deg Mean anomaly: 231.4188 deg Mean motion: 15.39478096 rev/day Decay rate: 2.928e-05 rev/day^2 Epoch rev: 02603 Checksum: 304
Satellite: PHARMSAT Catalog number: 35002 Epoch time: 09308.86539278 Element set: 131 Inclination: 040.4681 deg RA of node: 118.0871 deg Eccentricity: 0.0025130 Arg of perigee: 133.5161 deg Mean anomaly: 226.7750 deg Mean motion: 15.40210181 rev/day Decay rate: 3.012e-05 rev/day^2 Epoch rev: 2603 Checksum: 240
Satellite: HAWKSAT1 Catalog number: 35003 Epoch time: 09309.83370206 Element set: 139 Inclination: 040.4609 deg RA of node: 111.2049 deg Eccentricity: 0.0024936 Arg of perigee: 146.5926 deg Mean anomaly: 213.6468 deg Mean motion: 15.41205902 rev/day Decay rate: 5.719e-05 rev/day^2 Epoch rev: 2620 Checksum: 272
Satellite: CP6 Catalog number: 35004 Epoch time: 09308.85769066 Element set: 0134 Inclination: 040.4619 deg RA of node: 117.0158 deg Eccentricity: 0.0024436 Arg of perigee: 138.5077 deg Mean anomaly: 221.7592 deg Mean motion: 15.41332583 rev/day Decay rate: 6.779e-05 rev/day^2 Epoch rev: 02604 Checksum: 302
Satellite: AEROCUB3 Catalog number: 35005 Epoch time: 09308.87925500 Element set: 0142 Inclination: 040.4744 deg RA of node: 117.3734 deg Eccentricity: 0.0024090 Arg of perigee: 135.0336 deg Mean anomaly: 225.2440 deg Mean motion: 15.41090888 rev/day Decay rate: 6.197e-05 rev/day^2 Epoch rev: 02604 Checksum: 270
Satellite: DRAGNSAT Catalog number: 35690 Epoch time: 09308.88970455 Element set: 0097 Inclination: 051.6439 deg RA of node: 297.8566 deg Eccentricity: 0.0006381 Arg of perigee: 083.7478 deg Mean anomaly: 276.4253 deg Mean motion: 15.85988572 rev/day Decay rate: 4.0381e-04 rev/day^2 Epoch rev: 01542 Checksum: 353
Satellite: POLLUX Catalog number: 35693 Epoch time: 09309.62437395 Element set: 99 Inclination: 051.6405 deg RA of node: 294.5252 deg Eccentricity: 0.0005549 Arg of perigee: 051.4676 deg Mean anomaly: 308.6778 deg Mean motion: 15.85042312 rev/day Decay rate: 3.6216e-04 rev/day^2 Epoch rev: 1550 Checksum: 312
Satellite: CASTOR Catalog number: 35694 Epoch time: 09309.62722070 Element set: 91 Inclination: 051.6417 deg RA of node: 295.3215 deg Eccentricity: 0.0005456 Arg of perigee: 049.3497 deg Mean anomaly: 310.7957 deg Mean motion: 15.82542855 rev/day Decay rate: 1.7207e-04 rev/day^2 Epoch rev: 1549 Checksum: 311
Satellite: METEOR-M Catalog number: 35865 Epoch time: 09308.85962865 Element set: 0047 Inclination: 098.7934 deg RA of node: 358.8882 deg Eccentricity: 0.0001534 Arg of perigee: 302.5945 deg Mean anomaly: 057.5064 deg Mean motion: 14.21827075 rev/day Decay rate: 1.76e-06 rev/day^2 Epoch rev: 00684 Checksum: 336
Satellite: STERKH-2 Catalog number: 35866 Epoch time: 09308.84372761 Element set: 51 Inclination: 098.7943 deg RA of node: 358.9163 deg Eccentricity: 0.0002365 Arg of perigee: 300.5261 deg Mean anomaly: 059.5647 deg Mean motion: 14.22298883 rev/day Decay rate: 1.78e-06 rev/day^2 Epoch rev: 684 Checksum: 329
Satellite: FREGAT-I Catalog number: 35867 Epoch time: 09309.81668871 Element set: 58 Inclination: 097.3672 deg RA of node: 358.9647 deg Eccentricity: 0.0011690 Arg of perigee: 111.9106 deg Mean anomaly: 248.3173 deg Mean motion: 15.22753937 rev/day Decay rate: 2.268e-05 rev/day^2 Epoch rev: 747 Checksum: 337
/EX
participants (1)
-
Ray Hoad